User: anonymous   Login
Location: Unspecified
(0.0000°N, 0.0000°E)
Time: 09:08:47
(UTC+00:00)
Language:

MOZHAYETS - Orbit

View from above orbital plane
View from above orbital plane
View from above satellite
View from above satellite

Ground track
Ground track

The orbit data is extracted from the following two-line orbital elements,

1 27560U 02054B   17086.96022771 +.00000099 +00000-0 +31758-4 0  9993
2 27560 098.1937 222.6029 0041055 006.0528 103.7351 14.57596380761213
Epoch (UTC): 27 March 2017 23:02:43
Eccentricity: 0.0041055
inclination: 98.1937°
perigee height: 672 km
apogee height: 730 km
right ascension of ascending node: 222.6029°
argument of perigee: 6.0528°
revolutions per day: 14.57596380
mean anomaly at epoch: 103.7351°
orbit number at epoch: 76121

The dashed part of the orbit path shows where the satellite is in the earth's shadow,  

DLR